Caldwell, ID

12:44 PM MDT on July 23, 2017 (GMT -0600)
Caldwell Industrial

Weather History for KEUL - December, 2011

Change the Weather History Date:

Saturday, December 31, 2011

  Actual Average (KBOI) Record (KBOI)
Temperature  
Mean Temperature 34 °F -  
Max Temperature 39 °F 33 °F 58 °F (1996)
Min Temperature 28 °F 18 °F -9 °F (1978)
Degree Days  
Heating Degree Days 32    
Moisture  
Dew Point 20 °F    
Average Humidity 59    
Maximum Humidity 69    
Minimum Humidity 45    
Precipitation  
Precipitation 0.12 in - - ()
Sea Level Pressure  
Sea Level Pressure 30.37 in    
Wind  
Wind Speed 7 mph (SSE)    
Max Wind Speed 13 mph    
Max Gust Speed -    
Visibility 10 miles    
Events      
Averages and records for this station are not official NWS values.
T = Trace of Precipitation, MM = Missing Value Source: NWS Daily Summary

Daily Weather History Graph

Daily Weather History Graph

Search for Another Location

Airport or City:

Trip Planner

Search our weather history database for the weather conditions in past years. The results will help you decide how hot, cold, wet, or windy it might be!

Date:

Astronomy

Dec. 31, 2011 Rise Set
Actual Time 8:19 AM MST 5:19 PM MST
Civil Twilight 7:47 AM MST 5:51 PM MST
Nautical Twilight 7:11 AM MST 6:28 PM MST
Astronomical Twilight 6:36 AM MST 7:03 PM MST
Moon 11:52 AM MST (12/31) 12:11 AM MST (12/31)
Length of Visible Light 10h 04m
Length of Day
8h 59m
Waxing Crescent, 45% of the Moon is Illuminated
Dec 31
Waxing Crescent
Dec 31
First Quarter
Jan 9
Full
Jan 16
Last Quarter
Jan 23
New

Hourly Weather History & Observations

Time (MST) Temp. Windchill Dew Point Humidity Pressure Visibility Wind Dir Wind Speed Gust Speed Precip Events Conditions
12:35 AM 35.6 °F 30.7 °F 24.8 °F 65% 30.09 in 10.0 mi NW 5.8 mph - N/A   Clear
12:55 AM 33.8 °F 26.4 °F 23.0 °F 65% 30.10 in 10.0 mi WNW 9.2 mph - N/A   Clear
1:35 AM 35.6 °F 27.1 °F 24.8 °F 65% 30.13 in 10.0 mi NNW 12.7 mph - N/A   Partly Cloudy
1:55 AM 33.8 °F 25.3 °F 23.0 °F 65% 30.15 in 10.0 mi WNW 11.5 mph - N/A   Clear
2:15 AM 33.8 °F 26.4 °F 21.2 °F 60% 30.17 in 10.0 mi WNW 9.2 mph - N/A   Clear
2:35 AM 33.8 °F 25.8 °F 23.0 °F 65% 30.18 in 10.0 mi WNW 10.4 mph - N/A   Clear
2:55 AM 33.8 °F 26.4 °F 21.2 °F 60% 30.21 in 10.0 mi NW 9.2 mph - N/A   Clear
3:15 AM 33.8 °F 25.8 °F 21.2 °F 60% 30.22 in 10.0 mi NW 10.4 mph - N/A   Clear
3:35 AM 32.0 °F 23.0 °F 21.2 °F 64% 30.23 in 10.0 mi WNW 11.5 mph - N/A   Clear
3:55 AM 33.8 °F 26.4 °F 21.2 °F 60% 30.25 in 10.0 mi WNW 9.2 mph - N/A   Clear
4:15 AM 32.0 °F 24.2 °F 21.2 °F 64% 30.26 in 10.0 mi WNW 9.2 mph - N/A   Clear
4:35 AM 32.0 °F 24.2 °F 21.2 °F 64% 30.28 in 10.0 mi WNW 9.2 mph - N/A   Partly Cloudy
5:15 AM 30.2 °F 21.9 °F 21.2 °F 69% 30.30 in 10.0 mi West 9.2 mph - N/A   Clear
5:35 AM 30.2 °F 23.4 °F 19.4 °F 64% 30.31 in 10.0 mi WNW 6.9 mph - N/A   Clear
5:55 AM 28.4 °F 19.7 °F 19.4 °F 69% 30.32 in 10.0 mi WNW 9.2 mph - N/A   Clear
6:15 AM 30.2 °F 21.3 °F 19.4 °F 64% 30.33 in 10.0 mi WNW 10.4 mph - N/A   Clear
6:35 AM 28.4 °F 24.6 °F 19.4 °F 69% 30.34 in 10.0 mi West 3.5 mph - N/A   Clear
6:55 AM 30.2 °F - 17.6 °F 60% 30.36 in 10.0 mi Calm Calm - N/A   Clear
7:15 AM 28.4 °F 19.1 °F 17.6 °F 64% 30.38 in 10.0 mi WNW 10.4 mph - N/A   Clear
7:35 AM 30.2 °F 21.3 °F 17.6 °F 60% 30.39 in 10.0 mi WNW 10.4 mph - N/A   Clear
8:15 AM 28.4 °F 21.2 °F 17.6 °F 64% 30.41 in 10.0 mi WNW 6.9 mph - N/A   Clear
8:35 AM 28.4 °F 24.6 °F 17.6 °F 64% 30.42 in 10.0 mi South 3.5 mph - N/A   Clear
8:55 AM 28.4 °F 24.6 °F 19.4 °F 69% 30.42 in 10.0 mi WNW 3.5 mph - N/A   Clear
9:35 AM 30.2 °F 23.4 °F 21.2 °F 69% 30.44 in 10.0 mi East 6.9 mph - N/A   Clear
9:55 AM 30.2 °F - 21.2 °F 69% 30.45 in 10.0 mi Calm Calm - N/A   Clear
10:15 AM 33.8 °F - 21.2 °F 60% 30.46 in 10.0 mi Calm Calm - N/A   Clear
10:35 AM 33.8 °F 30.8 °F 21.2 °F 60% 30.47 in 10.0 mi NE 3.5 mph - N/A   Clear
10:55 AM 33.8 °F - 21.2 °F 60% 30.48 in 10.0 mi Calm Calm - N/A   Clear
11:15 AM 35.6 °F - 21.2 °F 56% 30.48 in 10.0 mi Calm Calm - N/A   Clear
11:35 AM 37.4 °F - 21.2 °F 52% 30.47 in 10.0 mi Calm Calm - N/A   Clear
11:55 AM 37.4 °F - 21.2 °F 52% 30.46 in 10.0 mi Calm Calm - N/A   Clear
12:15 PM 37.4 °F - 21.2 °F 52% 30.45 in 10.0 mi Calm Calm - N/A   Clear
12:35 PM 37.4 °F - 21.2 °F 52% 30.45 in 10.0 mi Calm Calm - N/A   Clear
12:55 PM 37.4 °F - 19.4 °F 48% 30.44 in 10.0 mi Calm Calm - N/A   Clear
1:15 PM 37.4 °F - 17.6 °F 45% 30.43 in 10.0 mi Calm Calm - N/A   Clear
1:35 PM 39.2 °F 35.9 °F 19.4 °F 45% 30.43 in 10.0 mi ESE 4.6 mph - N/A   Clear
2:15 PM 37.4 °F 31.4 °F 19.4 °F 48% 30.42 in 10.0 mi East 8.1 mph - N/A   Clear
2:35 PM 37.4 °F 32.8 °F 19.4 °F 48% 30.42 in 10.0 mi East 5.8 mph - N/A   Clear
2:55 PM 39.2 °F 33.0 °F 19.4 °F 45% 30.42 in 10.0 mi ESE 9.2 mph - N/A   Clear
3:15 PM 39.2 °F 33.6 °F 19.4 °F 45% 30.42 in 10.0 mi SE 8.1 mph - N/A   Clear
3:35 PM 39.2 °F 33.6 °F 19.4 °F 45% 30.42 in 10.0 mi ESE 8.1 mph - N/A   Clear
3:55 PM 37.4 °F 30.8 °F 19.4 °F 48% 30.42 in 10.0 mi ESE 9.2 mph - N/A   Clear
4:15 PM 37.4 °F 31.4 °F 19.4 °F 48% 30.43 in 10.0 mi ESE 8.1 mph - N/A   Clear
4:35 PM 37.4 °F 30.8 °F 19.4 °F 48% 30.43 in 10.0 mi ESE 9.2 mph - N/A   Clear
4:55 PM 35.6 °F 29.2 °F 19.4 °F 52% 30.43 in 10.0 mi ESE 8.1 mph - N/A   Clear
5:15 PM 33.8 °F 27.7 °F 19.4 °F 56% 30.43 in 10.0 mi ESE 6.9 mph - N/A   Clear
5:35 PM 33.8 °F 27.7 °F 19.4 °F 56% 30.43 in 10.0 mi ESE 6.9 mph - N/A   Clear
5:55 PM 30.2 °F 22.6 °F 19.4 °F 64% 30.43 in 10.0 mi ESE 8.1 mph - N/A   Clear
6:15 PM 30.2 °F 22.6 °F 19.4 °F 64% 30.43 in 10.0 mi ESE 8.1 mph - N/A   Clear
6:35 PM 30.2 °F 23.4 °F 19.4 °F 64% 30.44 in 10.0 mi ESE 6.9 mph - N/A   Clear
6:55 PM 30.2 °F 23.4 °F 19.4 °F 64% 30.44 in 10.0 mi ESE 6.9 mph - N/A   Clear
7:35 PM 30.2 °F 21.9 °F 19.4 °F 64% 30.44 in 10.0 mi SE 9.2 mph - N/A   Clear
7:55 PM 30.2 °F 21.3 °F 17.6 °F 60% 30.45 in 10.0 mi SE 10.4 mph - N/A   Clear
8:35 PM 28.4 °F 21.2 °F 17.6 °F 64% 30.45 in 10.0 mi SSE 6.9 mph - N/A   Clear
9:35 PM 30.2 °F 21.9 °F 17.6 °F 60% 30.43 in 10.0 mi SSE 9.2 mph - N/A   Clear
10:15 PM 30.2 °F 23.4 °F 17.6 °F 60% 30.44 in 10.0 mi SE 6.9 mph - N/A   Clear
10:35 PM 28.4 °F 20.4 °F 17.6 °F 64% 30.45 in 10.0 mi SE 8.1 mph - N/A   Clear
10:55 PM 28.4 °F 19.7 °F 17.6 °F 64% 30.45 in 10.0 mi SE 9.2 mph - N/A   Clear
11:15 PM 30.2 °F 21.9 °F 17.6 °F 60% 30.46 in 10.0 mi SE 9.2 mph - N/A   Clear
11:55 PM 28.4 °F 19.1 °F 17.6 °F 64% 30.46 in 10.0 mi SE 10.4 mph - N/A   Clear